Tracking 25710 objects as of 6-Jul-2022
HD Live streaming from Space Station
objects crossing your sky now

STARLINK-2606

Track STARLINK-2606 now!
10-day predictions
STARLINK-2606 is classified as:


NORAD ID: 48386
Int'l Code: 2021-038AK
Perigee: 553.2 km
Apogee: 555.5 km
Inclination: 53.1 °
Period: 95.6 minutes
Semi major axis: 6925 km
RCS: Unknown
Launch date: May 4, 2021
Source: United States (US)
Launch site: AIR FORCE EASTERN TEST RANGE (AFETR)
aabbcc
Your satellite tracking list
Your tracking list is empty




NASA's NSSDC Master Catalog

Two Line Element Set (TLE):
1 48386U 21038AK  22186.50812863  .00000338  00000-0  41589-4 0  9990
2 48386  53.0550 256.4095 0001680  62.6247 297.4913 15.06396099 64780
Source of the keplerian elements: AFSPC